GW4714 Weather Reports


Display with metric or nautical units.
time (UTC)temp
F
wind
direction
speed
MPH
gust
MPH
rain 1hr
in
rain 24hr
in
rain mn
in
humidity
%
barometer
mb
20260906064601 73 0 0.0 0.0 0.00 0.43 0.00 86 1012.8
20260906063100 73 0 0.0 0.0 0.00 0.43 0.00 86 1013.0
20260906061604 72 0 0.0 0.0 0.00 0.43 0.00 88 1013.3
20260906060104 71 0 0.0 1.0 0.00 0.43 0.00 93 1013.5
20260906054605 71 0 0.0 1.0 0.00 0.43 0.00 93 1013.5
20260906053110 71 0 0.0 1.0 0.00 0.43 0.00 93 1013.5
20260906051604 72 0 0.0 0.0 0.00 0.43 0.00 93 1013.7
20260906044600 73 0 0.0 0.0 0.00 0.43 0.00 91 1013.8
20260906043103 73 0 0.0 0.0 0.00 0.43 0.00 90 1013.8
20260906041603 73 0 0.0 0.0 0.00 0.43 0.00 91 1014.0
20260906040110 74 0 0.0 0.0 0.00 0.43 0.00 89 1014.1
20260906034601 73 0 0.0 1.0 0.00 0.43 0.43 90 1014.0
20260906033112 73 315 0.0 2.0 0.00 0.43 0.43 91 1014.1
20260906031558 74 0 0.0 0.0 0.00 0.43 0.43 91 1014.1
20260906024603 74 0 0.0 1.0 0.00 0.43 0.43 92 1014.1
20260906023102 74 309 0.0 3.0 0.00 0.43 0.43 93 1013.8
20260906021605 74 0 0.0 0.0 0.00 0.43 0.43 92 1013.7
20260906020109 75 0 0.0 1.0 0.00 0.43 0.43 91 1013.7
20260906014603 75 0 0.0 0.0 0.00 0.43 0.43 91 1013.7
20260906013110 76 0 0.0 1.0 0.00 0.43 0.43 89 1013.9
20260906011608 76 0 0.0 0.0 0.00 0.43 0.43 87 1013.5
20260906010107 77 0 0.0 0.0 0.00 0.43 0.43 86 1013.5
20260906004610 77 0 0.0 0.0 0.00 0.43 0.43 86 1013.4
20260906003107 78 0 0.0 0.0 0.00 0.43 0.43 82 1013.2
20260906001607 80 0 0.0 0.0 0.00 0.43 0.43 79 1012.7
20260906000109 80 0 0.0 0.0 0.00 0.43 0.43 79 1012.5
20260905234602 82 0 0.0 0.0 0.00 0.43 0.43 75 1012.5
20260905233103 83 0 0.0 1.0 0.00 0.43 0.43 73 1012.3
20260905231602 84 0 0.0 1.0 0.00 0.43 0.43 71 1012.5
20260905230059 84 0 0.0 3.0 0.00 0.43 0.43 72 1012.3
20260905224602 84 286 0.0 3.0 0.00 0.43 0.43 71 1012.3
20260905223104 85 49 0.0 4.0 0.00 0.43 0.43 70 1012.4
20260905221604 85 304 0.0 3.0 0.00 0.43 0.43 69 1012.4
20260905220103 85 292 1.0 4.0 0.00 0.43 0.43 68 1012.4
20260905214603 85 0 0.0 2.0 0.00 0.43 0.43 67 1012.7
20260905213105 85 0 0.0 3.0 0.00 0.43 0.43 67 1013.0
20260905211603 84 0 0.0 7.0 0.00 0.43 0.43 71 1013.1
20260905210120 82 0 0.0 3.0 0.00 0.43 0.43 79 1012.9
20260905204604 81 0 0.0 2.0 0.00 0.43 0.43 81 1012.7
20260905203058 80 0 0.0 1.0 0.00 0.43 0.43 83 1012.8
20260905201602 79 0 0.0 3.0 0.00 0.43 0.43 84 1013.0
20260905200114 80 0 0.0 1.0 0.00 0.43 0.43 83 1013.4
20260905194614 80 0 0.0 0.0 0.00 0.43 0.43 84 1013.4
20260905193100 78 0 0.0 0.0 0.00 0.43 0.43 83 1013.2
20260905191608 77 0 0.0 1.0 0.00 0.43 0.43 88 1013.3
20260905190112 76 0 0.0 2.0 0.00 0.43 0.43 90 1012.8
20260905184621 74 0 0.0 2.0 0.00 0.43 0.43 92 1012.4
20260905183109 74 0 0.0 1.0 0.25 0.43 0.43 93 1012.9
20260905181602 72 0 0.0 1.0 0.43 0.43 0.43 95 1013.7
20260905180059 71 0 0.0 3.0 0.43 0.43 0.43 94 1014.1
20260905174608 72 205 3.0 9.0 0.42 0.42 0.42 91 1015.1
20260905173113 73 242 4.0 36.0 0.17 0.17 0.17 86 1015.7
20260905171619 92 298 5.0 10.0 0.00 0.00 0.00 58 1014.2
20260905170113 93 296 2.0 10.0 0.00 0.00 0.00 55 1014.5
20260905164605 92 294 5.0 10.0 0.00 0.00 0.00 55 1014.5
20260905163117 92 269 2.0 7.0 0.00 0.00 0.00 57 1014.7
20260905161603 92 288 2.0 7.0 0.00 0.00 0.00 58 1014.8
20260905160107 92 290 0.0 7.0 0.00 0.00 0.00 60 1015.1
20260905154617 92 0 0.0 4.0 0.00 0.00 0.00 60 1015.1
20260905153113 91 294 1.0 8.0 0.00 0.00 0.00 62 1014.9
20260905151613 90 298 0.0 5.0 0.00 0.00 0.00 64 1014.7
20260905150118 89 307 1.0 4.0 0.00 0.00 0.00 68 1014.8
20260905144603 88 289 0.0 2.0 0.00 0.00 0.00 69 1014.9
20260905143104 87 0 0.0 2.0 0.00 0.00 0.00 70 1014.9
20260905141604 86 318 1.0 3.0 0.00 0.00 0.00 72 1014.8
20260905134600 83 0 0.0 3.0 0.00 0.00 0.00 77 1014.8
20260905133101 82 0 0.0 1.0 0.00 0.00 0.00 79 1015.0
20260905131607 80 0 0.0 1.0 0.00 0.00 0.00 81 1015.2
20260905130059 78 299 0.0 2.0 0.00 0.00 0.00 83 1015.2
20260905124558 77 297 0.0 0.0 0.00 0.00 0.00 86 1015.2
20260905123104 75 0 0.0 1.0 0.00 0.00 0.00 88 1015.2
20260905121604 74 301 0.0 2.0 0.00 0.00 0.00 90 1015.1
20260905120058 73 0 0.0 1.0 0.00 0.00 0.00 91 1014.8
20260905114602 72 0 0.0 0.0 0.00 0.00 0.00 92 1014.7
20260905113101 72 0 0.0 0.0 0.00 0.00 0.00 92 1014.7
20260905111644 72 0 0.0 0.0 0.00 0.00 0.00 91 1014.5
20260905110101 72 312 0.0 0.0 0.00 0.00 0.00 91 1014.4
20260905104607 72 0 0.0 1.0 0.00 0.00 0.00 92 1014.2
20260905103107 71 0 0.0 2.0 0.00 0.00 0.00 92 1014.2
20260905101606 72 307 0.0 1.0 0.00 0.00 0.00 92 1014.1
20260905100110 72 0 0.0 1.0 0.00 0.00 0.00 92 1014.1
20260905094605 72 0 0.0 1.0 0.00 0.00 0.00 92 1014.1
20260905093106 72 0 0.0 0.0 0.00 0.00 0.00 92 1014.1
20260905091604 72 0 0.0 1.0 0.00 0.00 0.00 91 1014.0
20260905084607 73 0 0.0 1.0 0.00 0.00 0.00 90 1014.2
20260905083102 73 304 0.0 0.0 0.00 0.00 0.00 90 1014.3
20260905081605 73 0 0.0 0.0 0.00 0.00 0.00 89 1014.4
20260905080122 74 0 0.0 1.0 0.00 0.00 0.00 89 1014.7
20260905074602 74 0 0.0 0.0 0.00 0.00 0.00 87 1014.7
20260905073104 74 0 0.0 0.0 0.00 0.00 0.00 87 1014.7
20260905071604 74 0 0.0 0.0 0.00 0.00 0.00 87 1014.9